Regional Weather Roundup
Issued by NWS

Home | Current Version | Previous Version | Text Only | Print | Product List | Glossary On
Versions: 1 2 3 4 5 6 7 8 9 10 11 12 13 14 15 16 17 18 19 20 21 22 23 24 25 26 27 28 29 30 31 32 33 34 35 36 37 38 39 40 41 42 43 44 45 46 47 48 49 50
000
ASUS43 KBIS 261220
RWRND

NORTH DAKOTA REGIONAL WEATHER ROUNDUP
NATIONAL WEATHER SERVICE BISMARCK ND
600 AM CST MON JAN 26 2015

NOTE: "FAIR" INDICATES FEW OR NO CLOUDS BELOW 12,000 FEET WITH NO
SIGNIFICANT WEATHER AND/OR OBSTRUCTIONS TO VISIBILITY.


NDZ001>003-009>011-017-261300-
NORTHWEST NORTH DAKOTA

CITY           SKY/WX    TMP DP  RH WIND       PRES   REMARKS
WILLISTON      CLOUDY    37  31  78 SW9       29.90S
6HR MIN TEMP:  36; 6HR MAX TEMP:  41;

MINOT          CLEAR     38  30  73 W18G28    29.80R
MINOT AFB      CLEAR     36  35  96 NW20      29.80R
$$

NDZ018>021-031>035-040>046-261300-
SOUTHWEST NORTH DAKOTA

CITY           SKY/WX    TMP DP  RH WIND       PRES   REMARKS
BISMARCK       PTCLDY    41  31  67 NW10      29.84R
6HR MIN TEMP:  34; 6HR MAX TEMP:  42;

DICKINSON      PTCLDY    35  30  82 W10       29.89R
GARRISON         N/A     38  32  79 NW18      29.83R
6HR MIN TEMP:  38; 6HR MAX TEMP:  41;

HETTINGER ARPT PTCLDY    34  30  85 W10       29.93R
$$

NDZ004>008-012>016-024-026-027-054-261300-
NORTHEAST NORTH DAKOTA

CITY           SKY/WX    TMP DP  RH WIND       PRES   REMARKS
GRAND FORKS    CLEAR     33  28  81 W10       29.65R
GRND FRKS AFB  CLEAR     37  30  75 NW15      29.66R
DEVILS LAKE    CLEAR     34  28  80 NW18      29.71R
$$

NDZ022-023-025-028>030-036>039-047>053-261300-
SOUTHEAST NORTH DAKOTA

CITY           SKY/WX    TMP DP  RH WIND       PRES   REMARKS
FARGO          MOCLDY    35  30  82 W15       29.67R
6HR MIN TEMP:  29; 6HR MAX TEMP:  35; 6HR PCP: TRACE;

JAMESTOWN      CLEAR     37  31  78 NW17      29.73S
$$




USA.gov is the U.S. government's official web portal to all federal, state and local government web resources and services.